SCP
0 0 0 0 0 0 0 0 0 0 0 0 0 0 0 0 0 0 0 0 0 0 0 0 0 0 0 0 0 0 0 0 0 0 0 0 -0 0 0 0 0 0 0
0 0 0 0 0 0 0 0 0 0 0 0 0 0 0 0 0 0 0 0 0 0 0 0 0 0 0 0 0 0 0 0 0 0 0 0 0 0 0 0 0 0 0
0 0 0 0 0 0 0 0 0 0 0 0 0 0 0 0 0 0 0 0 0 0 0 0 0 0 0 0 0 0 0 0 0 0 0 0 0 0 0 0 0 0 0
0 0 0 0 0 0 0 0 0 0 0 0 0 0 0 0 0 0 0 0 0 0 0 0 0 0 0 0 0 0 0 0 0 0 0 0 0 0 0 0 0 0 0
0 0 0 0 0 0 0 0 0 0 0 0 0 0 0 0 0 0 0 0 0 0 0 0 0 0 0 0 0 0 0 0 0 0 0 0 0 0 0 0 0 0 0
0 0 0 0 0 0 0 0 0 0 0 0 0 0 0 0 0 0 0 0 0 0 0 0 0 0 0 0 0 0 0 0 0 0 0 0 0 0 0 0 0 0 0
0 0 0 0 0 0 0 0 0 0 0 0 0 0 0 0 0 0 0 0 0 0 0 0 0 0 0 0 0 0 0 0 0 0 0 0 0 0 0 0 0 0 0
0 0 0 0 0 0 0 0 0 0 0 0 0 0 0 0 0 0 0 0 0 0 0 0 0 0 0 0 0 0 0 0 0 0 0 0 0 0 0 0 0 0 0
0 0 0 0 0 0 0 0 0 0 0 0 0 0 0 0 0 0 0 0 0 0 0 0 0 0 0 0 0 0 0 0 0 0 0 0 0 0 0 0 0 0 0
-0 -0 0 0 0 0 0 0 0 0 0 0 0 0 0 0 0 0 0 0 0 0 0 0 0 0 0 0 0 0 0 0 0 0 0 0 0 0 0 0 0 0 0
0 0 0 0 0 0 0 0 0 0 0 0 0 0 0 0 0 0 0 0 0 0 0 0 0 0 0 0 0 0 0 0 0 0 0 0 0 0 0 0 0 0 0
0 0 0 0 0 0 0 0 0 0 0 0 0 0 0 0 0 0 0 0 0 0 0 0 0 0 0 0 0 0 0 0 0 0 0 0 0 0 0 0 0 0 0
0 0 0 0 0 0 0 0 0 0 0 0 0 0 0 0 0 0 0 0 0 0 0 0 0 0 0 0 0 0 0 0 0 0 0 0 0 0 0 0 0 0 0
0 0 0 0 0 0 0 0 0 0 0 0 0 0 0 0 0 0 0 0 0 0 0 0 0 0 0 0 0 0 0 0 0 0 0 0 0 0 0 0 0 0 0
0 0 0 0 0 0 0 0 0 0 0 0 0 0 0 0 0 0 0 0 0 0 0 0 0 0 0 0 0 0 0 0 0 0 0 0 0 0 0 0 0 0 0
0 0 0 0 0 0 0 0 0 0 0 0 0 0 0 0 0 0 0 0 0 0 0 0 0 0 0 0 0 0 0 0 0 0 0 0 0 0 0 0 0 0 0
0 0 0 0 0 0 0 0 0 0 0 0 0 0 0 0 0 0 0 0 0 0 0 0 0 0 0 0 0 0 0 0 0 0 0 0 0 0 0 0 0 0 0
0 0 0 0 0 0 0 0 0 0 0 0 0 0 0 0 0 0 0 0 0 0 0 0 0 0 0 0 0 0 0 0 0 0 0 0 0 0 0 0 0 0 0
0 0 0 0 0 0 0 0 0 0 0 0 0 0 0 0 0 0 0 0 0 0 0 0 0 0 0 0 0 0 0 0 0 0 0 0 0 0 0 0 0 0 0
0 0 0 0 0 0 0 0 0 0 0 0 0 0 0 0 0 0 0 0 0 0 0 0 0 0 0 0 0 0 0 0 0 0 0 0 0 0 0 0 0 0 0
0 0 0 0 0 0 0 0 0 0 0 0 0 0 0 0 0 0 0 0 0 0 0 0 0 0 0 0 0 0 0 0 0 0 0 0 0 0 0 0 0 0 0
0 0 0 0 0 0 0 0 0 0 0 0 0 0 0 0 0 0 0 0 0 0 0 0 0 0 0 0 0 0 0 0 0 0 0 0 0 0 0 0 0 0 0
0 0 0 0 0 0 0 0 0 0 0 0 0 0 0 0 0 0 0 0 0 0 0 0 0 0 0 0 0 0 0 0 0 0 0 0 0 0 0 0 0 0 0
0 0 0 0 0 0 0 0 0 0 0 0 0 0 0 0 0 0 0 0 0 0 0 0 0 0 0 0 0 0 0 0 0 0 0 0 0 0 0 0 0 0 0
0 0 0 0 0 0 0 0 0 0 0 0 0 0 0 0 0 0 0 0 0 0 0 0 0 0 0 0 0 0 0 0 0 0 0 0 0 0 0 0 0 0 0
0 0 0 0 0 0 0 0 0 0 0 0 0 0 0 0 0 0 0 0 0 0 0 0 0 0 0 0 0 0 0 0 0 0 0 0 0 0 0 0 0 0 0
Wind_Speed
3 3 3 3 3 3 2 3 3 3 3 4 4 5 5 5 5 5 5 5 7 6 6 7 7 5 4 4 3 3 3 3 5 4 2 2 2 2 3 2 3 3 4
3 2 2 3 3 2 2 3 2 3 3 3 4 4 5 5 5 6 6 6 7 8 7 7 7 5 6 5 4 4 4 4 4 4 3 2 3 3 3 3 3 3 3
2 2 2 2 2 2 2 2 2 2 2 2 3 4 4 5 5 6 6 7 7 8 7 8 7 7 7 5 5 5 4 4 3 3 3 2 2 2 2 2 2 2 3
2 2 2 2 2 2 2 2 2 2 2 3 3 4 4 4 5 5 6 7 7 7 7 7 8 8 8 7 6 6 5 4 3 3 3 2 2 1 1 2 2 2 3
1 1 2 2 1 1 1 1 1 1 1 2 2 2 3 3 4 4 5 6 7 6 6 6 7 8 9 8 6 6 6 4 4 4 3 3 2 2 3 2 2 2 3
1 1 2 2 1 1 1 1 1 1 1 1 2 2 3 3 5 7 6 5 5 6 6 5 6 7 9 10 10 9 8 6 6 5 4 4 4 3 2 2 2 2 3
1 2 2 1 1 1 2 1 1 1 1 2 2 2 3 4 6 7 7 4 5 5 6 5 4 5 7 6 7 8 8 9 9 6 6 5 5 5 4 3 3 3 4
1 2 2 1 2 2 1 2 2 1 1 2 2 3 3 4 6 7 7 4 4 4 5 5 5 5 6 6 5 4 4 4 5 4 4 4 4 4 5 4 3 2 2
2 2 2 2 2 2 2 2 2 1 2 2 3 3 3 4 6 7 6 2 3 4 4 4 5 5 7 7 5 4 3 2 2 3 3 3 4 4 4 2 2 2 2
2 3 3 2 2 2 2 2 2 2 2 2 3 3 3 4 6 6 6 2 3 2 2 3 6 6 7 7 5 5 4 3 2 2 1 1 1 2 3 3 4 3 2
3 3 3 2 2 2 2 2 2 1 2 2 3 3 3 4 6 6 5 2 3 2 2 2 3 7 7 7 6 4 5 3 2 2 2 1 1 0 1 1 2 3 3
3 3 3 3 3 2 2 2 2 1 1 2 2 3 3 3 4 5 5 4 3 2 2 2 3 6 6 5 4 4 4 3 2 2 1 1 1 1 1 1 1 1 2
2 3 3 3 3 3 2 2 2 1 1 2 2 2 2 2 3 4 5 4 3 2 1 3 3 3 3 3 4 4 3 2 2 2 2 1 1 1 1 0 1 1 1
3 3 3 2 2 2 2 2 2 2 2 2 2 2 2 2 2 2 2 2 2 1 1 1 1 2 1 2 3 2 1 2 2 2 1 1 1 1 0 0 0 0 1
3 3 3 2 2 2 2 2 3 3 3 3 3 3 2 2 4 4 2 1 1 1 1 1 1 1 1 1 1 1 1 1 1 1 1 1 1 1 0 0 1 0 0
3 3 2 2 2 2 2 3 4 4 5 5 5 4 3 4 4 4 3 3 2 1 2 1 1 1 1 1 1 1 1 1 1 1 1 1 1 1 1 1 1 1 1
3 3 2 2 2 2 2 2 3 4 4 4 4 4 4 4 4 3 2 1 1 1 1 1 1 1 1 1 1 1 1 1 1 1 1 1 1 1 1 1 1 1 1
3 3 3 2 2 2 2 2 2 2 3 3 3 4 4 4 3 2 1 1 1 1 1 1 1 1 1 1 1 1 1 1 0 0 1 1 1 1 1 1 1 1 1
3 2 2 2 2 2 2 2 2 2 2 3 2 2 3 3 2 1 0 1 1 1 1 1 1 1 1 1 1 1 1 1 1 0 1 1 1 1 1 1 1 1 1
3 4 3 2 2 2 2 2 2 2 2 2 2 2 2 1 1 1 0 1 1 1 1 1 1 1 1 1 1 1 1 1 1 0 1 1 1 1 1 2 1 1 1
3 3 4 3 2 2 2 2 2 2 2 2 2 2 3 1 1 1 0 1 1 1 1 1 1 1 1 1 1 1 1 1 1 1 1 1 1 1 1 1 1 1 1
2 2 2 2 2 2 2 2 2 2 2 2 2 2 3 1 0 0 0 1 1 1 1 1 1 1 2 2 2 2 2 1 1 1 1 1 1 1 1 1 1 0 1
2 2 2 2 2 3 2 2 1 1 2 1 1 1 1 0 0 0 0 1 1 1 1 1 1 1 1 1 1 2 2 2 2 2 2 2 1 1 1 1 1 1 1
2 3 2 2 2 2 2 2 1 1 1 1 1 1 1 1 1 0 0 0 0 0 1 1 1 2 2 1 1 1 1 1 1 2 2 2 2 1 1 1 1 1 1
2 2 2 2 2 2 2 2 2 1 1 1 1 1 1 1 1 1 1 1 1 1 1 1 1 1 2 2 1 1 2 2 2 1 2 2 2 2 2 1 1 1 0
2 2 2 2 2 2 2 2 2 1 1 1 1 1 1 1 1 0 0 1 1 0 0 1 1 1 1 1 2 2 2 2 2 2 2 2 2 2 2 1 1 1 1
Wind_Direction
266 258 264 266 265 249 230 231 227 225 218 218 224 218 216 217 215 209 211 210 212 214 212 210 214 206 205 210 206 208 216 212 239 264 259 255 240 252 273 261 250 247 256
262 258 259 264 265 252 248 242 228 225 219 223 225 220 221 220 217 211 212 212 211 213 214 211 213 207 210 209 206 213 219 217 219 248 260 248 246 241 252 263 273 263 254
264 259 266 268 263 262 259 248 226 223 225 229 233 232 231 228 225 220 214 214 215 216 212 211 211 206 213 212 211 216 220 221 215 223 246 251 260 249 270 289 288 284 275
274 262 269 272 263 264 265 255 237 224 226 235 236 241 241 239 234 223 218 216 216 217 215 213 211 210 212 210 214 216 215 214 214 217 231 240 248 244 222 261 292 287 282
304 292 280 280 283 291 294 285 264 246 256 250 251 254 249 243 237 229 219 215 213 214 217 219 218 219 221 218 217 213 207 212 213 217 227 232 231 220 229 228 259 284 283
322 308 309 311 307 300 296 289 278 279 276 274 270 265 258 256 255 252 238 215 213 211 216 221 225 223 224 227 230 227 217 213 210 213 224 224 231 229 224 226 231 269 277
303 301 314 315 313 312 306 303 292 286 284 289 290 285 273 266 264 264 260 240 219 216 214 214 223 227 222 215 223 227 230 232 226 218 218 226 222 214 203 217 226 245 254
310 306 310 308 307 311 300 297 296 276 276 289 288 285 284 280 279 275 269 252 230 220 217 211 212 218 216 209 204 215 227 231 229 223 215 219 219 207 202 205 207 235 271
335 324 317 305 298 297 292 294 286 284 295 297 293 291 288 289 287 284 282 245 226 225 222 216 212 210 218 211 196 197 213 227 223 215 218 216 220 218 193 158 174 201 256
322 314 311 302 291 287 288 290 288 282 290 297 301 298 291 290 293 291 292 244 222 225 225 220 224 220 216 216 197 188 200 212 179 153 144 134 179 205 212 194 189 201 227
320 319 321 319 303 292 297 294 287 293 300 298 297 299 296 295 298 296 292 265 223 218 225 227 222 223 222 221 214 199 199 188 171 164 166 163 144 155 227 206 201 204 213
321 323 324 321 312 311 307 304 301 295 296 297 297 302 301 296 302 294 294 283 266 227 223 225 225 232 222 213 209 184 170 161 152 156 171 187 185 205 233 216 212 230 222
320 319 315 314 313 308 301 303 302 288 273 280 280 287 304 313 307 304 302 293 284 273 237 230 232 227 202 171 162 158 151 148 153 169 189 205 200 197 197 347 18 8 349
321 313 305 308 313 314 303 290 272 264 262 270 270 273 283 300 303 297 292 283 286 283 240 184 147 115 104 129 141 140 147 169 169 177 185 179 154 151 173 189 203 38 27
315 308 311 311 305 307 302 288 279 262 256 259 256 256 256 266 282 296 290 274 256 226 144 108 104 110 115 110 101 105 113 128 137 139 150 161 165 160 208 175 172 160 198
315 314 311 307 300 295 299 309 306 290 293 286 280 275 272 274 289 292 289 285 275 191 133 136 144 141 155 147 145 136 134 157 154 151 159 177 183 179 198 194 195 195 210
293 297 300 300 300 298 294 295 302 312 308 302 298 292 280 283 289 289 289 233 205 163 133 136 151 167 176 164 164 170 182 178 159 157 161 172 178 179 188 214 218 224 239
294 293 290 285 285 285 282 281 281 289 302 305 307 296 288 280 283 280 243 119 99 85 144 158 169 181 193 187 176 162 156 147 136 150 164 184 187 185 193 206 205 221 253
307 296 287 282 280 280 280 284 285 287 286 289 295 298 297 284 275 260 212 169 168 179 188 186 183 186 188 180 165 153 150 152 153 180 205 204 196 184 194 201 203 226 239
304 300 300 297 293 289 287 286 288 286 283 280 281 283 288 268 221 236 211 188 179 182 188 187 180 182 182 173 163 156 147 151 163 199 228 219 198 183 188 197 202 207 243
299 302 305 305 294 287 286 278 274 274 274 279 282 286 296 274 243 240 209 190 197 200 194 189 187 188 189 181 175 172 174 186 195 211 226 220 190 184 186 188 197 197 242
301 302 302 297 297 295 292 289 284 283 283 280 286 304 314 309 261 231 202 200 206 209 196 187 192 198 196 193 187 184 185 196 202 207 216 205 193 183 168 168 170 195 219
306 306 308 309 306 308 315 308 297 290 289 285 290 305 311 280 253 223 215 206 191 189 183 174 182 195 195 195 194 186 190 202 209 209 201 189 185 181 168 168 184 209 231
310 308 311 314 316 314 311 308 307 307 311 306 289 282 279 272 252 238 236 220 200 191 187 185 187 188 184 191 198 192 190 200 208 205 187 175 176 170 163 167 191 216 224
319 316 315 312 309 308 307 307 307 309 311 310 293 276 275 271 256 222 202 182 172 171 179 170 167 176 181 189 192 188 190 205 220 188 167 164 163 162 159 161 169 171 163
319 316 315 314 311 308 305 305 307 309 307 310 299 276 264 265 273 259 183 154 146 142 150 152 158 174 195 194 184 189 196 195 185 169 154 151 152 159 155 152 153 144 133